This is the latest recevied weather packets stored in our database for station/object N2KI-13. If no packets are shown the sender has not sent any weather packets the latest 10 day(s).
| Time | Temp. | Humidity | Pressure | Rain* | Wind** | Luminosity | Snow |
|---|---|---|---|---|---|---|---|
| 1777383604 | 15.56° C | 52% | 1020.8 hPa | 0 mm | - | - | - |
| 1777382104 | 14.44° C | 54% | 1020.9 hPa | 0 mm | - | - | - |
| 1777381805 | 13.89° C | 53% | 1020.8 hPa | 0 mm | - | - | - |
| 1777381504 | 13.89° C | 56% | 1020.9 hPa | 0 mm | - | - | - |
| 1777379404 | 11.67° C | 70% | 1021.1 hPa | 0 mm | - | - | - |
| 1777379104 | 11.11° C | 72% | 1021.1 hPa | 0 mm | - | - | - |
| 1777375804 | 5.56° C | 88% | 1021.6 hPa | 0 mm | - | - | - |
| 1777374304 | 3.89° C | 88% | 1021.3 hPa | 0 mm | - | - | - |
| 1777373704 | 3.33° C | 88% | 1021.5 hPa | 0 mm | - | - | - |
| 1777372804 | 3.33° C | 88% | 1021.3 hPa | 0 mm | - | - | - |
| 1777372504 | 3.33° C | 87% | 1021.3 hPa | 0 mm | - | - | - |
| 1777370403 | 3.33° C | 87% | 1021.7 hPa | 0 mm | - | - | - |
| 1777370104 | 3.33° C | 86% | 1021.7 hPa | 0 mm | - | - | - |
| 1777366804 | 4.44° C | 86% | 1021.7 hPa | 0 mm | - | - | - |
| 1777366204 | 4.44° C | 85% | 1021.8 hPa | 0 mm | - | - | - |
| 1777361404 | 5.56° C | 83% | 1022.1 hPa | 0 mm | - | - | - |
| 1777354804 | 8.33° C | 75% | 1022.9 hPa | 0 mm | - | - | - |
| 1777353305 | 8.89° C | 75% | 1022.8 hPa | 0 mm | - | - | - |
| 1777352704 | 9.44° C | 72% | 1022.6 hPa | 0 mm | - | - | - |
| 1777350605 | 10° C | 67% | 1023.3 hPa | 0 mm | - | - | - |
| 1777349704 | 10.56° C | 65% | 1023.5 hPa | 0 mm | - | - | - |
| 1777349405 | 11.11° C | 65% | 1023.5 hPa | 0 mm | - | - | - |
| 1777348804 | 11.11° C | 66% | 1023.6 hPa | 0 mm | - | - | - |
| 1777347904 | 11.67° C | 62% | 1023.7 hPa | 0 mm | - | - | - |
| 1777347304 | 12.22° C | 62% | 1023.8 hPa | 0 mm | - | - | - |
* Rain latest hour (hover to see other rain measurements)
** Current wind speed in m/s (hover to see current wind gust speed)